Terminal Aerodrome Forecast
Issued by NWS

Home | Current Version | Previous Version | Text Only | Print | Product List | Glossary On
Versions: 1 2 3 4 5 6 7 8 9 10 11 12 13 14 15 16 17 18
000
FTUS42 KILM 241322 AAA
TAFCRE
TAF AMD
KCRE 241322Z 2413/2512 03007KT P6SM VCSH BKN030
     FM241400 13012G19KT P6SM OVC015
      TEMPO 2415/2419 1SM +TSRA OVC004CB
     FM242100 12012G20KT 2SM +SHRA OVC007
     FM250400 15010G15KT 3SM SHRA BKN010
     FM250800 20010KT 4SM -SHRA BKN015
      TEMPO 2508/2512 P6SM BKN025=

USA.gov is the U.S. government's official web portal to all federal, state and local government web resources and services.